User: anonymous   Login
Location: Darlington Observatory
(36.4817°N, 105.8156°W)
Time: 19:20:05
(UTC-06:00)
Language:

Cosmos 2278 Rocket - Orbit

View from above orbital plane
View from above orbital plane
View from above satellite
View from above satellite

Ground track
Ground track

The orbit data is extracted from the following two-line orbital elements,

1 23088U 94023B   16180.79404768  .00000052  00000-0  51774-4 0  9995
2 23088  71.0015 303.7693 0005564 275.1296  84.9191 14.14646901145569
Epoch (UTC): 28 June 2016 19:03:25
Eccentricity: 0.0005564
inclination: 71.0015°
perigee height: 839 km
apogee height: 847 km
right ascension of ascending node: 303.7693°
argument of perigee: 275.1296°
revolutions per day: 14.14646901
mean anomaly at epoch: 84.9191°
orbit number at epoch: 14556

The dashed part of the orbit path shows where the satellite is in the earth's shadow,  

DLR